VK3CG Weather Reports


time (UTC)temp
C
wind
direction
speed
KPH
gust
KPH
rain 1hr
cm
rain 24hr
cm
rain mn
cm
humidity
%
barometer
mb
20260510220026 2 193 0.0 0.0 0.00 0.03 0.00 69 1045.9
20260510214523 2 193 0.0 0.0 0.00 0.03 0.00 69 1045.9
20260510213024 2 193 0.0 0.0 0.00 0.03 0.00 69 1045.8
20260510211521 2 193 0.0 0.0 0.00 0.03 0.00 69 1045.4
20260510210017 2 193 0.0 0.0 0.00 0.03 0.00 69 1045.2
20260510204516 2 193 0.0 0.0 0.00 0.03 0.00 69 1045.1
20260510203013 2 193 0.0 0.0 0.00 0.03 0.00 69 1044.9
20260510201512 2 193 0.0 0.0 0.00 0.03 0.00 69 1044.7
20260510200010 2 193 0.0 0.0 0.00 0.03 0.00 69 1044.5
20260510194516 3 193 0.0 0.0 0.00 0.03 0.00 69 1044.3
20260510193006 3 193 0.0 0.0 0.00 0.03 0.00 69 1044.2
20260510191505 3 193 0.0 0.0 0.00 0.03 0.00 69 1044.0
20260510190004 3 193 0.0 0.0 0.00 0.03 0.00 69 1043.8
20260510184503 3 193 0.0 0.0 0.00 0.03 0.00 68 1043.8
20260510183002 3 193 0.0 0.0 0.00 0.03 0.00 68 1043.8
20260510181600 3 193 0.0 0.0 0.00 0.03 0.00 68 1043.5
20260510180108 3 193 0.0 0.0 0.00 0.03 0.00 68 1043.4
20260510174606 3 193 0.0 0.0 0.00 0.03 0.00 68 1043.3
20260510173058 3 193 0.0 0.0 0.00 0.03 0.00 68 1043.2
20260510171604 3 193 0.0 0.0 0.00 0.03 0.00 68 1043.3
20260510170053 4 193 0.0 0.0 0.00 0.03 0.00 68 1043.3
20260510164605 4 193 0.0 0.0 0.00 0.03 0.00 68 1043.2
20260510163115 4 193 0.0 0.0 0.00 0.03 0.00 68 1043.2
20260510161545 3 193 0.0 0.0 0.00 0.03 0.00 68 1043.3
20260510160044 2 193 0.0 0.0 0.00 0.03 0.00 68 1043.4
20260510154541 2 193 0.0 0.0 0.00 0.03 0.00 67 1043.5
20260510153055 2 193 0.0 0.0 0.00 0.03 0.00 67 1043.4
20260510151538 2 193 0.0 0.0 0.00 0.03 0.00 67 1043.3
20260510150041 2 193 0.0 0.0 0.00 0.03 0.00 67 1043.3
20260510144543 2 193 0.0 0.0 0.00 0.03 0.00 67 1043.4
20260510143038 2 193 0.0 0.0 0.00 0.03 0.00 66 1043.4
20260510141534 2 193 0.0 0.0 0.00 0.03 0.00 67 1043.4
20260510140033 3 193 0.0 0.0 0.00 0.03 0.03 66 1043.4
20260510134526 3 193 0.0 0.0 0.00 0.03 0.03 66 1043.4
20260510133025 3 193 0.0 0.0 0.00 0.03 0.03 66 1043.4
20260510131525 4 193 0.0 0.0 0.00 0.03 0.03 67 1043.5
20260510130020 5 193 0.0 0.0 0.00 0.03 0.03 66 1043.5
20260510124525 5 193 0.0 0.0 0.00 0.03 0.03 66 1043.5
20260510123018 5 193 0.0 0.0 0.00 0.03 0.03 67 1043.8
20260510121518 5 193 0.0 0.0 0.00 0.03 0.03 66 1043.7
20260510120016 5 193 0.0 0.0 0.00 0.03 0.03 66 1043.8
20260510114514 5 193 0.0 0.0 0.00 0.03 0.03 66 1043.7
20260510113012 5 193 0.0 0.0 0.00 0.03 0.03 66 1043.5
20260510111511 5 193 0.0 0.0 0.00 0.03 0.03 66 1043.5
20260510110010 6 193 0.0 0.0 0.00 0.03 0.03 66 1043.4
20260510104508 6 193 0.0 0.0 0.00 0.03 0.03 66 1043.3
20260510103006 6 193 0.0 0.0 0.00 0.03 0.03 66 1043.2
20260510101504 6 193 0.0 0.0 0.00 0.03 0.03 66 1043.2
20260510100003 7 193 0.0 1.6 0.00 0.03 0.03 66 1043.3
20260510094608 7 193 0.0 0.0 0.00 0.03 0.03 66 1043.1
20260510093102 7 193 0.0 0.0 0.00 0.03 0.03 66 1043.0
20260510091556 7 193 0.0 0.0 0.00 0.03 0.03 66 1042.8
20260510084610 8 193 0.0 0.0 0.00 0.03 0.03 65 1042.5
20260510083051 8 193 0.0 3.2 0.00 0.03 0.03 65 1042.3
20260510081553 9 193 0.0 1.6 0.00 0.03 0.03 65 1042.2
20260510080047 10 193 0.0 1.6 0.00 0.03 0.03 64 1042.0
20260510074547 10 192 0.0 3.2 0.00 0.03 0.03 63 1041.8
20260510073046 10 192 1.6 6.4 0.00 0.03 0.03 63 1041.6
20260510071546 11 177 0.0 6.4 0.00 0.03 0.03 62 1041.6
20260510070050 11 227 1.6 9.7 0.00 0.03 0.03 62 1041.6
20260510064548 11 121 0.0 8.0 0.00 0.03 0.03 61 1041.5
20260510063048 12 153 0.0 8.0 0.00 0.03 0.03 60 1041.3
20260510061543 12 153 0.0 9.7 0.00 0.03 0.03 60 1041.2
20260510060044 12 137 1.6 8.0 0.00 0.03 0.03 60 1041.2
20260510054542 12 202 3.2 11.3 0.00 0.03 0.03 59 1041.0
20260510053041 12 215 3.2 9.7 0.00 0.03 0.03 59 1041.0
20260510051546 13 232 3.2 12.9 0.00 0.03 0.03 59 1041.0
20260510050041 13 132 1.6 17.7 0.00 0.03 0.03 58 1041.0
20260510044539 13 89 4.8 16.1 0.00 0.03 0.03 57 1040.9
20260510043041 13 120 4.8 12.9 0.00 0.03 0.03 58 1040.9
20260510041537 13 200 4.8 14.5 0.00 0.03 0.03 58 1040.8
20260510040036 13 126 6.4 12.9 0.00 0.03 0.03 58 1041.0
20260510034541 13 114 3.2 12.9 0.00 0.03 0.03 59 1041.0
20260510033032 13 198 1.6 9.7 0.00 0.03 0.03 59 1041.2
20260510031532 13 195 4.8 14.5 0.00 0.03 0.03 59 1041.4
20260510030031 13 182 3.2 11.3 0.00 0.03 0.03 59 1041.6
20260510024530 13 183 3.2 9.7 0.00 0.03 0.03 60 1041.7
20260510023028 12 154 3.2 12.9 0.00 0.03 0.03 61 1041.9
20260510021526 12 209 4.8 12.9 0.00 0.03 0.03 62 1041.9
20260510020024 12 223 1.6 14.5 0.00 0.03 0.03 65 1042.0
20260510014519 12 124 3.2 12.9 0.00 0.03 0.03 70 1042.1
20260510013016 11 140 1.6 12.9 0.00 0.03 0.03 74 1042.4
20260510011525 10 150 3.2 14.5 0.00 0.03 0.03 76 1042.7
20260510010010 10 147 3.2 12.9 0.00 0.03 0.03 76 1042.7
20260510004512 10 153 3.2 9.7 0.00 0.03 0.03 76 1042.5
20260510003008 10 158 1.6 9.7 0.00 0.03 0.03 76 1042.6
20260510001506 10 167 1.6 11.3 0.00 0.03 0.03 76 1042.6
20260510000013 10 186 1.6 6.4 0.00 0.03 0.03 77 1042.6
20260509234504 10 183 1.6 11.3 0.00 0.03 0.03 77 1042.6
20260509233002 10 160 3.2 11.3 0.00 0.03 0.03 77 1042.5
20260509231500 10 156 3.2 8.0 0.03 0.03 0.03 77 1042.4
20260509230100 10 148 1.6 8.0 0.03 0.03 0.03 76 1042.4
20260509224558 10 191 0.0 12.9 0.03 0.03 0.03 76 1042.2
20260509223102 10 164 0.0 8.0 0.03 0.03 0.03 76 1042.2
20260509221552 10 203 0.0 4.8 0.00 0.00 0.00 76 1042.1